This is the latest recevied weather packets stored in our database for station/object HP2BWJ-13. If no packets are shown the sender has not sent any weather packets the latest 10 day(s).
| Time | Temp. | Humidity | Pressure | Rain* | Wind** | Luminosity | Snow |
|---|---|---|---|---|---|---|---|
| 1777549229 | 24.44° C | 88% | 1009 hPa | 0 mm | - | - | - |
| 1777548089 | 25° C | 88% | 1009 hPa | 1.78 mm | - | - | - |
| 1777548028 | 25° C | 88% | 1009 hPa | 1.78 mm | - | - | - |
| 1777546888 | 25.56° C | 88% | 1008 hPa | 0 mm | - | - | - |
| 1777546828 | 25.56° C | 88% | 1008 hPa | 0 mm | - | - | - |
| 1777545687 | 22.22° C | 89% | 1008 hPa | 0 mm | - | - | - |
| 1777545627 | 22.22° C | 89% | 1008 hPa | 0 mm | - | - | - |
| 1777544486 | 22.78° C | 89% | 1008 hPa | 0 mm | - | - | - |
| 1777544426 | 22.78° C | 89% | 1008 hPa | 0 mm | - | - | - |
| 1777543285 | 23.33° C | 89% | 1007 hPa | 0 mm | - | - | - |
| 1777543225 | 23.33° C | 89% | 1007 hPa | 0 mm | - | - | - |
| 1777542084 | 22.22° C | 89% | 1007 hPa | 0 mm | - | - | - |
| 1777542024 | 22.22° C | 89% | 1007 hPa | 0 mm | - | - | - |
| 1777540884 | 22.78° C | 89% | 1007 hPa | 0.25 mm | - | - | - |
| 1777540823 | 22.78° C | 89% | 1007 hPa | 0.25 mm | - | - | - |
| 1777539683 | 23.33° C | 89% | 1007 hPa | 0.51 mm | - | - | - |
| 1777539622 | 23.33° C | 89% | 1007 hPa | 0.51 mm | - | - | - |
| 1777538482 | 22.22° C | 89% | 1007 hPa | 0.51 mm | - | - | - |
| 1777538422 | 22.22° C | 89% | 1007 hPa | 0.51 mm | - | - | - |
| 1777537281 | 22.78° C | 89% | 1008 hPa | 2.29 mm | - | - | - |
| 1777537220 | 22.78° C | 89% | 1008 hPa | 2.29 mm | - | - | - |
| 1777536080 | 23.33° C | 89% | 1007 hPa | 1.02 mm | - | - | - |
| 1777536020 | 23.33° C | 89% | 1007 hPa | 1.02 mm | - | - | - |
| 1777534879 | 23.89° C | 89% | 1007 hPa | 0 mm | - | - | - |
| 1777534819 | 23.89° C | 89% | 1007 hPa | 0 mm | - | - | - |
* Rain latest hour (hover to see other rain measurements)
** Current wind speed in m/s (hover to see current wind gust speed)